Wind_Speed
5 7 9 10 8 6 3 1 1 1 1 2 1 1 0 1 1 2 4 4 3 1 0 3 7 6 3 2 6 3 3 4 3 3 2 3 19 26 18 17 20 20 20 20 18 16 14 13 12 13 13 11 11 10 9 10 11 11 11 10 10 10 9 9 10 10 10 11 11 11 11 10 10 10 11 12 13 13 14 13 14 14 14 15 15 15 15 16 17 17 18 19 19 20 20 21 21
7 9 10 8 5 2 1 0 1 1 1 2 1 1 1 0 1 3 5 4 2 3 2 4 7 4 0 3 7 5 4 4 1 3 2 13 22 18 17 19 20 20 21 21 19 17 14 13 13 13 12 11 10 9 9 10 10 11 11 10 10 10 10 10 10 10 10 10 11 11 11 10 10 11 12 12 13 13 13 13 14 15 14 15 15 15 16 16 17 17 18 19 19 20 21 21 21
9 10 10 6 2 1 1 0 1 1 1 2 0 0 1 1 2 2 3 2 3 6 5 5 7 3 2 3 4 3 2 4 3 4 5 17 16 13 17 18 19 19 21 21 19 18 15 13 14 13 12 11 10 9 9 10 10 11 10 10 11 11 10 10 10 10 9 9 9 10 10 10 11 12 12 12 12 13 12 13 14 15 15 15 15 16 17 17 17 17 18 18 19 20 20 20 18
10 9 7 4 1 1 1 1 1 0 0 1 1 1 2 1 2 2 2 3 6 7 4 5 5 1 1 4 3 3 3 2 3 5 6 11 14 18 19 18 19 19 20 21 19 18 15 14 14 13 12 10 9 9 9 10 10 10 10 11 11 11 10 10 10 9 9 8 8 9 9 10 11 11 12 12 12 12 13 13 14 14 15 16 17 17 17 18 17 17 17 17 18 20 19 17 17
10 7 4 2 1 1 1 0 0 0 1 1 1 1 2 1 2 3 3 4 5 5 3 3 4 1 1 3 1 2 3 4 4 7 9 11 19 23 20 20 20 19 20 20 20 17 15 15 13 13 11 10 9 9 10 10 10 10 10 10 10 10 10 10 10 9 8 8 8 8 9 9 10 11 11 12 12 12 12 13 14 14 14 16 18 17 18 18 18 16 17 17 18 19 18 17 17
10 6 2 1 1 1 0 0 1 1 1 2 2 2 3 2 2 3 4 3 3 3 1 2 5 4 2 3 4 2 4 6 6 9 13 16 22 23 21 21 20 19 19 19 19 17 16 14 13 12 11 10 9 9 9 10 9 10 10 10 10 10 10 10 10 9 8 8 8 8 9 9 10 11 11 12 12 11 12 13 15 15 15 16 17 16 17 18 17 16 17 17 17 18 18 17 17
8 4 1 1 1 0 1 1 1 1 1 0 1 3 3 2 2 4 3 2 2 2 2 4 8 7 3 3 4 3 6 8 8 12 18 22 24 23 22 22 21 20 19 19 19 17 16 14 13 11 11 9 8 9 9 10 10 10 10 10 10 10 10 11 11 9 9 9 9 9 9 9 9 10 11 11 11 12 12 13 15 15 16 16 16 16 16 16 16 16 16 16 16 17 17 17 16
5 2 0 1 0 1 1 1 1 1 1 2 2 2 3 2 3 4 3 1 3 2 5 7 7 7 3 4 3 3 9 10 11 18 24 25 24 23 23 22 22 21 20 20 19 18 15 14 13 11 11 9 8 10 9 10 11 11 10 10 10 9 10 10 11 10 9 8 9 10 9 9 9 9 10 11 11 12 13 13 15 16 16 16 16 16 16 16 16 16 15 15 16 16 16 16 16
3 1 1 1 1 1 1 1 2 2 3 3 2 3 3 3 2 4 3 1 3 5 8 8 4 7 5 6 5 4 10 15 19 23 26 25 25 24 23 23 23 22 21 21 20 17 15 14 12 11 11 9 9 10 9 10 11 12 11 10 10 9 10 11 11 9 8 8 9 10 9 10 10 9 10 11 11 12 13 13 15 16 16 17 17 17 17 17 16 16 15 15 15 16 16 15 15
1 0 1 0 1 0 1 0 2 2 5 5 3 3 2 3 2 2 2 2 6 7 7 5 5 9 8 7 5 4 12 20 25 23 24 25 25 24 23 23 23 23 23 21 19 17 15 13 11 11 11 8 9 11 10 10 11 11 11 10 10 10 11 11 11 9 8 7 9 10 10 10 10 10 10 11 12 12 13 14 15 16 17 17 18 17 17 17 16 15 15 15 16 15 15 14 14
1 1 0 0 0 1 1 2 2 3 7 6 3 0 0 2 2 1 2 5 7 7 8 8 9 11 9 6 3 8 18 22 24 23 24 25 24 23 23 23 23 23 23 22 19 17 15 13 11 11 11 9 10 12 10 9 11 11 11 10 10 11 11 11 10 8 8 8 9 10 10 11 11 11 11 11 12 13 13 14 15 15 17 18 18 17 17 17 16 15 15 15 15 15 14 14 14
1 1 0 0 0 1 0 2 2 5 7 6 3 2 1 1 2 3 6 8 9 10 9 6 8 10 8 4 3 12 19 19 22 24 24 23 22 22 22 23 23 23 23 22 19 17 15 13 12 11 10 9 10 13 11 9 11 12 11 11 11 10 10 11 9 8 9 10 10 11 10 11 11 11 12 12 12 13 14 15 14 15 16 17 18 17 17 16 15 14 14 14 14 14 13 13 13
0 1 1 1 0 0 1 3 3 5 5 4 3 2 1 1 2 3 7 11 11 11 8 5 8 7 7 5 5 10 14 18 23 23 23 22 22 22 22 23 23 24 23 22 20 17 15 14 12 11 10 9 10 12 12 10 11 13 12 11 11 10 9 9 9 8 9 11 11 11 11 12 12 12 12 12 13 14 14 15 15 15 15 16 16 16 16 15 14 13 13 14 13 13 13 13 12
2 1 1 1 0 1 1 2 4 5 3 3 3 2 2 2 2 1 7 12 8 8 8 8 10 9 8 7 6 6 11 21 24 22 22 23 23 22 22 23 24 24 23 21 19 17 16 14 13 12 10 10 10 11 13 12 12 13 12 11 10 9 8 8 9 9 9 11 12 12 12 12 13 13 13 13 13 14 14 14 14 15 15 15 16 15 15 15 14 13 13 14 13 12 12 12 12
4 0 1 0 1 1 1 1 4 5 3 4 3 3 3 2 1 1 5 9 5 6 11 10 7 7 8 10 9 9 17 26 24 23 24 23 23 22 22 23 23 23 22 21 19 17 16 15 14 12 11 10 10 10 12 13 13 13 12 11 10 9 8 9 10 10 9 10 11 12 12 12 13 13 13 14 14 14 14 15 15 15 14 15 15 14 14 14 13 12 13 13 12 12 12 11 11
2 1 1 1 1 1 1 3 4 5 3 4 4 3 4 1 1 2 1 2 7 7 7 7 4 4 7 7 11 18 26 28 24 25 25 23 22 22 22 22 22 21 20 20 18 17 16 16 14 13 11 10 10 10 10 13 14 13 13 12 9 8 8 10 10 10 10 10 11 12 12 13 13 13 14 14 14 15 14 15 15 14 14 15 15 14 14 13 12 12 12 11 11 12 12 11 10
1 1 1 1 1 1 2 4 4 4 5 5 4 4 5 3 2 1 1 2 9 8 3 3 2 7 9 8 17 27 30 28 26 26 24 23 22 21 20 20 20 20 19 19 18 17 16 15 15 13 12 11 11 11 10 11 13 14 13 12 10 9 9 10 10 10 10 11 12 12 13 14 14 13 14 14 14 15 14 14 14 13 14 15 14 14 14 13 12 11 11 11 11 11 10 9 9
1 1 0 1 1 2 4 5 3 4 6 7 6 4 6 8 1 1 1 5 8 7 5 5 7 10 12 17 25 28 29 27 27 26 23 21 20 19 19 19 20 19 19 19 18 17 16 15 15 14 13 12 12 12 11 11 13 13 14 14 11 9 8 9 10 11 11 12 12 12 13 14 14 15 15 15 14 14 14 14 13 13 13 14 13 13 13 13 12 11 11 11 11 11 10 9 8
2 1 1 1 2 3 5 4 4 6 8 9 6 4 5 7 4 1 4 8 8 8 7 9 12 12 15 21 26 27 27 26 25 24 22 20 20 19 18 18 19 19 20 20 19 18 17 16 15 15 14 13 13 13 12 12 13 13 13 15 13 9 7 7 9 10 12 12 11 11 13 14 14 15 15 15 14 13 13 13 12 12 12 12 12 12 12 13 12 12 12 12 11 11 11 11 9
2 1 1 3 3 3 4 4 4 5 9 11 7 4 5 5 2 1 7 10 8 8 9 11 14 14 15 18 23 26 24 23 23 22 21 20 20 20 19 19 19 20 21 21 20 19 17 16 15 15 14 14 14 14 13 13 14 13 13 14 14 11 8 6 7 9 12 12 11 11 12 13 14 13 13 13 13 13 13 12 12 12 12 12 12 12 12 13 13 13 12 12 11 11 10 10 9
1 2 2 3 3 2 5 5 4 6 9 9 8 6 5 4 1 2 10 11 7 8 9 12 16 18 18 17 20 23 22 21 21 20 20 19 19 19 19 20 20 21 21 20 20 19 17 16 15 15 15 15 15 14 14 14 15 14 13 14 14 13 11 8 8 9 11 12 13 12 12 13 12 11 12 12 13 13 13 12 12 12 13 13 13 13 14 15 15 15 13 12 11 10 9 8 8
1 3 3 2 3 2 5 6 6 8 7 7 9 8 5 3 2 3 6 8 6 8 11 14 16 18 19 18 19 20 19 19 18 19 19 19 19 18 18 18 19 20 20 20 21 19 18 17 16 15 15 15 15 14 14 15 15 15 14 14 14 14 12 10 10 10 10 11 12 13 13 12 11 11 11 12 13 13 13 13 13 13 14 14 14 14 15 16 15 14 12 10 9 8 7 6 5
1 3 2 2 2 2 6 8 8 8 8 9 10 8 6 6 4 4 2 1 3 7 12 14 16 18 21 20 18 16 15 16 17 19 18 20 20 20 20 19 19 20 20 21 21 20 19 18 16 15 16 16 15 15 14 15 15 15 15 14 14 14 13 12 12 11 10 9 9 11 12 11 12 12 12 12 12 12 13 13 13 14 14 14 14 14 14 14 13 11 10 8 7 6 5 4 4
2 2 2 2 2 4 7 8 9 7 6 6 6 8 6 7 5 1 1 3 2 9 13 14 17 20 21 18 15 14 15 16 17 19 19 20 21 21 22 21 21 21 21 21 21 21 20 19 17 15 16 17 16 16 15 15 16 16 15 15 14 14 14 13 12 12 10 8 8 9 10 11 12 12 13 13 13 13 12 12 13 13 13 13 13 13 12 12 11 9 8 7 6 5 5 5 5
4 2 1 3 3 4 7 8 9 8 3 3 9 11 6 7 6 1 1 3 4 13 14 15 17 18 16 14 14 13 13 16 17 18 18 18 19 20 20 20 21 22 22 22 22 22 21 20 17 16 17 17 17 17 16 16 16 17 16 16 15 14 14 13 13 12 11 10 9 9 10 11 12 12 13 13 13 12 11 11 11 11 12 12 12 12 11 10 9 7 6 6 6 6 7 8 9
5 5 2 4 6 5 6 5 7 8 5 6 11 10 5 4 4 2 4 4 7 16 15 15 16 15 14 13 14 13 12 15 17 18 18 18 19 19 19 20 21 22 23 23 23 22 21 21 18 17 17 17 18 18 17 16 17 18 17 16 16 15 15 14 13 13 12 11 10 9 10 12 12 13 12 12 11 10 9 9 8 8 9 9 9 9 8 6 4 3 3 4 5 6 7 8 10
6 5 3 6 7 5 5 6 7 8 8 9 10 6 2 3 1 1 3 4 7 17 16 15 15 14 14 13 13 14 14 15 18 19 18 18 19 20 19 20 22 22 22 22 23 23 22 21 19 18 17 17 18 18 17 17 18 18 17 16 16 16 16 15 14 13 13 12 10 10 10 11 12 11 11 10 9 8 7 7 6 6 7 7 6 5 4 2 2 3 4 5 4 5 6 7 8
8 9 8 7 8 6 5 7 6 7 7 11 13 5 1 2 1 3 3 2 3 15 17 15 15 13 13 14 12 12 13 16 19 19 18 18 19 21 21 22 22 22 23 23 23 23 22 21 20 18 17 17 18 19 18 18 19 19 18 17 16 16 17 16 15 15 14 13 11 10 10 10 10 9 8 7 7 6 6 5 5 5 5 5 4 3 1 1 3 3 4 4 3 4 5 6 7
8 9 7 4 6 4 2 4 5 6 6 11 13 6 2 1 2 2 1 2 2 13 17 15 14 12 12 12 11 10 13 17 18 18 19 20 21 22 23 24 24 24 24 24 23 23 22 22 20 19 18 17 18 19 18 19 19 19 18 17 16 16 17 17 16 15 14 13 12 10 9 9 9 8 7 6 5 4 4 4 5 4 4 4 4 3 1 1 2 3 2 2 3 4 5 6 7
6 5 6 4 3 1 0 3 4 7 6 8 8 4 3 2 2 1 1 2 7 16 16 14 13 11 11 11 10 10 12 16 16 19 22 22 23 24 24 24 26 26 25 23 23 23 22 21 20 19 18 17 19 18 18 19 19 19 18 17 16 16 17 17 16 15 14 12 11 10 9 9 9 8 7 6 6 5 4 5 4 4 4 5 5 3 2 2 2 1 1 2 3 4 5 7 9
5 5 3 2 1 1 2 4 4 5 4 6 3 3 4 5 5 4 2 2 10 17 15 14 13 11 11 10 11 10 11 16 18 21 23 24 24 25 25 25 26 26 25 25 24 23 22 21 20 20 19 18 19 18 17 19 19 18 18 17 16 16 17 17 16 14 13 12 10 10 9 8 8 8 7 6 7 6 6 6 5 5 5 5 5 4 3 3 2 2 2 3 5 5 5 6 7
4 4 1 1 1 1 1 3 5 5 4 5 1 3 3 5 6 5 4 4 9 15 15 14 14 14 13 10 11 10 10 16 20 21 23 24 25 25 26 26 26 27 27 27 25 22 21 21 20 20 19 18 19 18 17 18 19 18 17 16 16 16 16 16 15 14 12 11 10 10 9 9 8 7 7 7 7 7 7 7 6 5 5 5 4 4 3 3 3 4 4 5 6 5 5 4 4
1 2 3 2 2 2 0 3 5 5 6 4 3 3 3 3 5 5 5 7 9 11 12 13 14 14 13 11 10 9 10 12 16 19 22 24 24 25 27 27 28 28 28 28 27 24 22 21 21 20 19 18 18 18 17 18 19 18 17 16 16 16 16 15 15 14 12 11 11 11 11 10 9 8 7 7 7 7 7 7 7 7 6 5 4 4 3 3 4 4 4 4 4 4 4 3 2
2 2 3 2 2 3 2 2 5 5 7 6 3 3 4 3 7 7 7 9 10 10 11 11 11 13 12 11 10 9 10 10 11 17 22 24 24 25 27 28 28 28 28 29 28 27 24 23 21 19 19 18 18 18 18 18 18 18 17 16 16 16 17 15 14 13 12 11 11 11 11 11 10 8 7 7 8 7 7 7 7 7 6 4 4 3 3 4 4 4 3 3 3 4 4 3 3
5 2 3 2 2 4 4 2 7 9 7 6 4 4 4 5 8 8 7 9 10 10 10 7 8 12 12 11 10 10 10 11 13 19 24 25 25 26 26 27 28 28 28 29 29 28 25 23 21 19 18 18 18 18 17 18 18 17 17 17 16 17 17 15 14 13 11 11 11 12 12 11 9 8 8 8 8 8 8 8 7 6 5 3 3 4 4 5 4 4 4 3 3 4 4 4 4
7 4 4 5 4 4 4 2 7 11 8 6 6 5 6 8 9 9 7 9 11 11 7 4 6 10 11 10 10 10 10 10 16 23 26 26 26 27 27 27 28 28 29 29 29 28 26 24 22 20 19 18 19 19 18 18 19 18 17 17 18 18 18 17 15 14 12 12 12 12 12 11 9 9 9 9 9 9 9 8 6 5 4 4 4 5 5 5 4 4 4 4 4 4 3 3 4
5 3 2 6 5 4 3 4 7 10 6 4 5 6 8 11 11 10 7 7 11 12 9 5 6 9 10 11 11 10 9 10 18 24 26 27 27 27 27 27 27 26 28 29 28 28 27 24 23 22 21 19 20 21 20 20 21 21 19 19 20 20 20 18 17 16 14 13 13 12 12 11 10 9 9 9 9 9 9 8 7 6 6 6 5 5 5 5 5 4 4 4 4 4 3 3 5
3 4 2 4 4 4 1 5 9 9 4 3 5 7 9 11 11 9 8 9 12 14 12 7 6 9 9 10 12 9 7 8 15 20 24 26 26 26 27 27 27 26 28 30 29 29 27 25 24 23 22 21 21 22 22 22 23 23 21 21 21 21 21 20 18 17 15 14 14 13 13 12 12 11 10 9 9 9 9 9 8 7 7 7 6 6 5 5 5 4 4 4 3 4 4 3 4
1 3 3 3 3 1 3 5 10 8 2 3 6 7 7 8 9 9 8 9 8 9 10 7 7 9 10 10 11 9 7 9 11 14 19 24 25 26 26 26 28 29 30 31 30 29 28 26 25 23 23 23 22 22 23 23 23 22 21 21 20 21 21 20 17 16 16 16 15 15 15 15 14 12 11 10 9 10 10 10 9 9 9 8 7 6 7 6 5 4 3 3 2 3 4 3 3
1 3 3 3 4 3 3 3 10 7 2 5 7 5 4 4 6 7 7 4 2 3 5 4 4 8 11 10 9 10 10 10 11 12 15 20 23 24 25 26 27 28 29 30 29 28 28 28 27 25 25 24 24 24 24 23 21 20 19 18 19 20 20 20 18 16 16 16 16 16 15 16 15 14 12 11 10 10 10 9 9 9 9 9 8 7 8 8 6 4 2 2 2 3 4 4 3
1 4 5 4 4 4 4 7 9 5 3 7 9 4 1 3 5 7 6 4 3 5 5 4 4 5 7 7 6 9 10 11 12 12 13 17 21 23 25 26 26 27 28 29 30 30 29 30 28 27 26 25 25 24 24 23 21 19 18 18 19 19 19 20 20 19 19 18 17 16 16 16 16 15 13 12 11 10 9 9 9 9 9 9 8 7 8 7 6 4 2 1 2 3 5 5 4
2 4 9 7 6 7 10 13 9 4 2 7 9 4 3 4 6 8 6 5 7 7 8 8 6 4 5 6 6 7 9 11 12 13 14 17 21 23 24 26 26 27 29 31 32 31 30 30 29 27 26 25 25 25 25 23 22 21 20 20 21 20 19 20 22 22 22 21 18 16 16 16 17 16 14 12 12 11 10 9 9 9 8 8 8 7 7 7 6 4 2 2 1 2 4 5 5
2 5 9 8 8 11 15 15 8 3 3 6 7 4 1 3 7 9 7 7 8 7 9 10 7 6 6 7 6 6 8 9 10 13 14 17 20 22 23 25 27 28 29 31 32 31 30 31 30 28 26 25 25 26 26 25 23 22 20 20 21 22 22 22 23 23 21 20 18 16 16 16 16 16 15 14 12 12 10 10 9 9 8 8 8 7 6 6 5 4 3 3 2 2 4 5 6
4 5 5 7 10 13 17 14 7 3 4 5 6 2 2 3 6 8 9 9 9 9 11 11 9 8 7 8 7 7 8 9 10 12 14 17 21 23 24 26 28 29 29 30 30 30 31 31 30 29 28 26 26 26 27 26 24 22 20 18 20 23 23 22 22 21 20 19 17 16 16 15 15 15 16 14 13 12 11 10 10 9 8 8 8 7 6 5 5 4 4 4 3 2 3 4 5
6 5 4 7 10 14 15 11 5 4 6 3 7 3 2 3 3 7 10 10 11 13 15 13 12 11 9 9 8 7 7 8 9 11 13 17 22 25 27 28 29 29 30 31 31 31 31 31 30 29 29 28 27 26 27 26 24 23 21 19 20 22 21 20 20 20 19 18 16 15 15 15 14 13 14 14 13 13 11 10 9 9 8 7 7 7 5 5 5 5 5 4 4 3 4 5 4
6 6 5 3 6 9 10 7 4 4 4 4 10 8 2 2 3 6 8 10 13 14 14 13 12 11 10 10 9 7 5 6 7 10 15 20 24 26 28 28 28 28 30 31 31 31 31 32 31 30 30 29 28 27 26 26 25 23 22 21 20 21 20 19 19 19 19 18 16 15 15 14 13 13 13 13 12 12 11 10 10 9 8 8 7 6 6 6 6 6 6 5 5 5 6 6 5
3 4 4 3 3 4 5 2 3 4 2 5 10 12 5 1 3 6 9 12 15 14 11 12 13 12 11 10 9 8 6 5 6 7 13 20 24 26 27 27 27 28 29 29 29 30 32 32 32 31 30 28 27 27 26 27 26 23 22 22 20 20 20 20 20 20 19 18 17 16 15 14 14 13 13 12 12 11 11 10 10 9 8 8 8 7 7 6 6 7 7 6 6 7 7 7 6
3 3 4 4 3 2 4 4 4 2 5 4 8 12 6 3 4 7 12 12 10 13 14 15 17 15 12 11 10 8 6 6 5 6 10 16 19 22 24 25 26 27 27 27 28 29 31 32 32 32 31 29 28 27 26 27 26 24 22 22 20 19 20 21 21 20 20 19 18 16 16 15 15 14 13 13 12 11 10 10 10 9 9 9 8 8 7 7 7 8 8 8 7 8 7 7 6
5 3 5 5 1 0 2 1 2 1 6 4 8 11 6 5 5 7 13 11 6 10 13 14 15 15 13 12 11 8 6 7 6 5 8 11 14 19 22 24 25 26 28 29 29 29 31 32 32 32 31 30 28 27 27 27 26 25 23 22 21 20 21 22 21 20 19 19 18 17 17 16 16 16 15 15 13 11 10 10 10 10 10 9 8 8 8 8 8 9 10 9 8 8 8 7 7
6 6 5 5 4 3 4 2 2 2 9 6 7 10 4 5 3 3 8 9 7 7 10 12 13 14 13 12 11 9 7 7 6 6 8 10 14 19 23 24 26 27 29 30 30 30 31 31 32 32 31 30 28 27 29 28 26 25 23 21 20 20 23 23 21 20 19 18 18 18 18 17 16 17 17 16 14 12 11 10 9 10 11 10 9 9 9 9 9 9 10 9 8 8 7 8 7
5 5 5 5 5 5 4 4 4 5 6 2 6 7 3 2 2 5 6 7 8 8 8 10 11 11 11 10 10 9 8 7 5 4 4 9 17 22 24 25 27 29 30 31 30 31 31 31 32 32 30 30 28 27 29 29 26 25 23 21 19 20 22 22 21 20 18 18 19 19 19 18 17 17 16 15 14 12 12 11 10 10 11 11 10 9 9 10 10 10 10 10 9 8 7 7 7
3 3 5 4 5 5 3 3 6 5 2 1 3 3 3 3 3 7 4 3 6 7 6 8 10 10 10 9 9 9 8 5 6 5 2 5 14 22 24 25 28 30 31 31 30 31 31 31 32 32 31 31 29 28 30 30 27 25 24 23 20 20 21 21 21 20 19 18 19 20 19 19 17 16 15 15 14 13 12 12 11 11 11 12 11 10 10 10 11 11 11 11 10 9 7 7 7
2 3 4 4 4 6 4 1 1 3 4 1 1 1 4 1 2 7 6 5 5 5 5 7 8 10 10 9 9 9 6 6 6 5 5 3 5 11 18 22 24 26 28 29 31 33 34 34 33 33 31 31 31 30 30 30 28 26 25 24 23 22 21 22 22 21 20 18 19 20 19 18 18 16 15 14 14 13 13 13 12 12 12 12 11 10 10 11 11 11 11 10 10 9 8 8 7
4 3 5 3 2 4 3 2 2 3 3 1 1 1 4 1 1 6 9 9 8 6 4 5 6 8 8 7 7 6 7 8 7 7 8 7 11 10 15 18 19 21 23 26 29 32 33 34 35 34 33 32 32 32 31 31 30 29 27 26 25 24 22 22 21 21 20 18 18 20 19 19 18 17 16 15 14 14 14 13 13 13 13 13 12 12 11 11 11 11 11 10 10 9 9 9 8
5 5 3 2 3 1 1 2 2 2 2 1 3 2 2 1 1 5 8 7 7 6 6 7 6 6 5 5 5 8 9 8 8 8 8 9 11 12 16 19 19 20 23 26 28 28 29 30 32 33 34 34 34 34 33 32 31 30 29 28 27 26 23 21 21 20 20 19 18 20 20 19 18 17 16 16 15 15 15 15 15 14 14 14 13 13 12 12 12 12 12 12 11 10 11 11 10
4 3 2 1 3 3 2 2 3 4 3 2 1 3 2 1 1 2 4 6 5 5 7 8 7 6 6 5 6 7 8 7 7 7 6 9 13 14 16 20 22 22 23 25 27 28 29 29 28 28 29 29 30 32 32 32 32 31 30 28 27 27 24 22 20 20 21 20 19 19 20 19 18 17 16 16 17 17 17 16 16 16 17 16 16 15 14 14 13 13 14 13 12 11 12 13 12
3 4 2 0 1 1 2 1 1 4 4 3 2 1 3 2 1 1 5 7 7 8 9 8 7 7 8 7 7 6 6 5 5 5 6 7 12 15 16 18 22 23 22 21 23 25 27 27 27 28 28 27 27 28 29 30 30 30 30 29 27 28 26 23 20 21 21 21 20 20 20 19 19 19 18 17 18 20 19 18 17 17 18 18 18 17 16 15 14 14 14 14 13 12 13 13 13
5 4 2 3 3 3 3 0 2 2 4 4 5 3 4 3 2 2 4 7 8 9 11 10 9 9 9 8 8 6 5 5 6 8 10 7 7 12 15 16 19 22 20 19 20 21 20 20 23 27 28 27 28 28 28 29 29 28 28 28 27 27 27 25 22 21 22 22 21 21 20 19 19 19 20 19 18 19 20 20 18 17 17 17 18 18 16 15 15 15 14 14 15 14 15 15 14
Wind_Direction
149 138 130 127 126 129 106 27 77 13 83 119 214 219 209 335 38 114 115 119 121 149 187 114 123 140 163 136 139 124 76 140 160 139 180 166 140 146 150 152 157 158 155 152 150 152 150 140 135 130 124 119 116 116 112 105 104 105 102 103 104 107 109 110 114 111 111 113 115 117 118 120 121 122 121 119 117 123 129 128 124 120 117 118 120 118 115 114 113 114 115 116 116 117 114 112 117
140 135 133 129 127 127 55 328 90 49 79 111 237 182 161 28 136 147 143 136 126 129 99 106 102 98 110 109 125 107 56 25 95 123 107 134 133 139 149 153 158 157 154 154 152 150 145 134 131 128 122 119 121 119 110 105 106 106 106 109 110 111 111 111 112 111 110 110 114 117 121 124 123 121 122 121 120 125 128 128 125 118 116 118 119 119 117 116 115 116 117 118 119 119 117 117 119
142 144 141 130 92 45 33 346 90 90 69 115 194 199 154 142 158 133 132 118 99 116 101 106 99 67 354 60 100 105 85 20 82 101 116 139 133 141 154 156 158 154 153 154 151 147 140 133 133 129 123 124 124 118 110 108 108 109 113 115 114 112 112 113 112 112 109 107 111 117 122 124 122 121 123 124 124 127 127 128 123 117 119 121 118 118 120 118 116 118 118 119 120 121 120 120 120
143 147 139 124 69 64 49 20 86 139 110 146 118 106 163 145 123 69 70 124 124 125 117 119 104 326 12 91 100 83 112 82 98 117 134 156 148 149 156 156 156 153 154 154 150 145 139 137 136 130 126 128 126 118 114 112 110 112 116 115 114 113 115 116 115 113 107 105 108 114 118 121 121 122 125 128 127 129 130 128 122 121 127 123 118 120 123 120 119 120 119 120 120 122 123 120 119
143 140 131 116 90 93 46 46 89 151 173 179 149 155 178 134 106 88 87 133 136 123 122 124 105 249 145 104 107 99 124 114 128 136 131 153 151 150 156 156 156 154 155 154 150 144 141 141 136 130 131 135 130 122 118 114 112 114 114 115 116 115 117 118 118 116 111 109 110 113 114 119 124 122 126 130 129 130 131 127 123 126 128 121 120 123 123 122 121 120 119 119 120 123 125 121 118
150 140 139 90 51 123 133 155 148 125 199 196 153 167 165 130 115 109 97 126 122 98 82 96 116 118 94 60 58 88 131 120 134 143 135 146 152 152 155 157 157 155 154 153 150 145 143 141 135 133 137 142 135 126 121 115 114 115 116 118 118 118 118 119 120 117 115 113 112 113 114 119 125 124 123 125 128 131 127 124 125 130 128 120 120 122 121 121 120 119 118 118 120 123 124 122 119
162 145 109 55 48 177 154 163 172 137 219 256 118 154 157 137 137 123 106 128 96 53 60 105 123 109 82 85 71 76 114 120 131 144 144 147 151 153 155 158 158 154 152 153 151 147 144 140 137 137 143 148 137 128 122 118 118 118 121 121 119 120 119 118 120 118 115 115 115 115 117 120 123 125 121 122 129 129 123 123 127 129 127 122 121 122 122 121 118 117 117 117 121 123 124 124 119
162 144 64 116 155 264 189 197 157 116 76 41 45 135 142 136 135 121 119 141 105 88 112 134 130 99 72 79 84 83 97 117 136 142 144 145 151 153 156 159 157 152 151 152 150 149 145 141 142 143 150 151 139 129 123 125 126 123 124 124 125 125 122 119 119 119 116 116 116 116 117 120 122 124 122 125 130 127 124 126 126 125 125 124 124 124 123 120 118 116 116 117 121 124 125 124 119
142 134 243 149 208 255 222 292 115 110 111 114 111 125 110 113 109 110 124 57 109 126 136 160 143 101 99 81 88 82 92 122 135 137 142 145 150 151 155 159 156 152 151 151 150 150 146 146 147 149 155 153 140 129 127 133 130 128 129 129 133 131 127 121 116 115 114 111 112 115 117 120 123 123 122 126 130 129 128 127 125 125 125 125 125 124 122 120 118 117 116 118 121 126 127 124 121
90 324 258 155 197 229 214 89 119 116 128 128 110 130 120 119 116 104 124 135 137 137 136 136 100 109 118 95 87 94 113 130 132 134 143 146 148 149 153 157 156 152 150 150 150 151 147 150 151 153 159 154 139 127 130 134 127 128 130 132 134 132 128 118 111 110 110 104 106 112 115 119 122 121 122 126 129 130 127 126 125 125 126 126 125 124 125 122 119 118 118 121 125 128 128 125 124
26 320 352 3 54 259 205 113 135 122 125 115 78 122 177 127 130 124 119 137 137 123 124 111 106 118 112 92 76 114 127 133 133 138 144 145 147 150 152 155 157 152 150 150 151 151 149 152 152 156 161 154 138 127 130 133 126 127 131 134 132 131 125 113 110 111 107 99 104 111 114 119 120 120 124 125 126 129 128 127 126 127 127 127 127 128 128 123 120 120 119 124 128 129 129 128 128
21 288 130 209 65 292 191 126 145 122 120 117 135 223 254 160 131 148 138 138 128 122 136 128 130 131 107 94 102 122 132 137 138 142 144 145 148 151 154 155 155 152 151 151 152 151 151 155 154 157 162 155 141 129 132 138 129 127 130 132 131 131 121 112 113 114 106 100 106 111 116 120 121 123 123 123 126 130 130 128 129 129 129 128 130 131 128 124 123 123 121 127 131 131 131 131 132
205 221 165 239 177 73 131 133 136 123 124 131 164 200 164 140 134 147 137 134 131 137 150 141 145 133 100 102 116 131 139 144 144 144 146 147 151 152 153 153 153 152 152 152 152 154 155 156 156 158 163 158 145 132 133 141 131 127 130 131 131 127 116 113 116 114 105 102 108 111 115 119 122 123 123 125 128 131 131 130 131 132 130 130 130 130 128 128 129 125 121 124 128 131 131 133 135
197 202 147 258 31 109 118 120 138 138 136 145 155 173 128 87 162 177 130 129 134 150 132 127 137 109 108 126 130 151 150 151 149 147 148 148 151 151 151 152 152 153 153 154 156 157 157 157 158 161 165 159 145 132 132 136 131 127 128 131 130 123 118 115 112 111 106 105 109 112 113 118 124 125 126 127 127 130 131 131 132 131 131 132 132 132 133 135 132 126 122 121 123 125 127 130 132
189 150 109 230 46 115 134 120 155 146 138 166 166 161 113 65 200 118 130 130 126 142 115 129 146 103 146 160 152 168 156 155 152 147 147 145 148 148 148 150 151 154 155 158 159 158 158 159 162 164 164 153 142 136 133 130 127 127 127 130 128 127 132 124 117 115 111 108 110 113 114 117 122 125 127 126 127 129 130 131 132 131 132 134 134 136 138 138 133 128 124 121 121 121 122 126 128
168 100 82 42 86 156 142 135 162 146 144 184 177 159 117 58 301 88 168 129 122 140 116 150 186 121 162 161 146 155 153 154 150 145 143 140 142 142 145 148 150 154 158 161 160 160 162 164 165 165 161 151 147 142 133 127 125 129 129 129 132 140 142 130 125 123 116 112 112 115 118 121 121 123 126 127 128 128 129 132 132 133 135 135 135 138 141 139 136 130 123 121 122 122 122 125 127
87 93 317 18 156 187 129 149 174 146 144 166 170 182 137 122 323 24 282 67 126 139 82 122 138 120 140 137 142 147 149 150 145 143 140 137 138 138 144 148 151 156 160 163 162 163 167 168 167 165 162 155 152 144 134 127 126 130 131 131 140 151 143 132 128 124 119 116 115 117 122 124 122 126 128 130 131 128 130 131 130 133 135 135 136 142 144 141 138 131 124 124 128 128 126 127 128
120 142 194 325 262 147 151 175 169 131 141 158 173 189 144 140 164 296 103 91 120 114 81 97 95 106 121 130 140 145 147 146 144 144 140 141 142 141 147 152 156 159 162 165 167 169 172 173 170 168 165 159 155 145 136 131 128 130 134 134 142 153 147 137 128 123 122 117 115 117 120 121 122 125 127 130 132 128 129 129 128 131 133 136 139 145 150 146 140 134 131 132 134 136 136 138 137
167 163 80 248 254 127 151 171 147 143 149 152 165 172 147 147 144 202 141 130 133 116 116 122 107 110 120 131 141 147 149 146 147 148 146 149 149 148 152 156 160 163 166 168 170 175 177 176 174 171 167 163 158 149 143 138 134 135 138 137 142 153 152 137 123 121 122 118 117 118 118 119 119 121 123 128 128 124 126 126 127 131 134 139 142 148 154 153 147 137 133 134 137 140 143 147 147
185 136 328 250 215 132 139 153 146 146 145 145 154 161 148 147 129 143 142 134 137 137 142 139 129 133 136 138 145 150 150 148 151 152 151 154 153 154 156 160 165 168 170 171 172 178 181 179 176 173 170 167 163 157 151 144 142 143 142 140 145 152 148 134 123 124 126 125 125 121 118 118 119 120 123 124 122 121 125 127 131 135 138 142 147 151 152 153 151 144 139 137 138 140 145 149 151
186 159 230 229 177 137 142 149 141 133 142 145 143 146 144 147 57 74 142 141 148 161 161 153 145 144 145 146 149 152 151 151 154 155 155 155 156 158 161 165 169 172 172 171 175 179 183 183 179 174 173 172 170 164 156 152 150 148 146 145 148 151 147 144 142 141 136 132 130 128 128 126 125 128 128 128 127 130 132 134 139 143 145 146 150 151 149 149 150 149 146 142 140 142 148 151 155
221 216 236 199 167 130 144 146 137 137 138 136 143 149 141 129 58 44 141 155 166 166 162 156 148 146 149 150 151 153 151 152 157 158 159 158 158 160 163 168 170 172 172 173 178 181 184 185 181 175 175 177 176 169 162 159 157 154 153 150 152 152 151 153 152 151 144 138 135 136 138 136 135 136 136 137 137 139 139 141 144 146 147 146 149 150 150 151 152 152 149 147 148 150 155 158 162
239 258 264 200 186 135 148 147 140 146 147 155 157 141 111 105 85 40 67 241 223 155 150 151 146 146 148 149 152 154 153 156 159 162 164 162 162 163 165 169 171 174 175 177 181 182 183 184 183 179 177 180 180 174 169 165 162 161 159 156 158 158 157 157 155 155 150 145 144 141 141 140 140 139 139 140 139 140 142 143 145 146 148 147 149 152 152 155 156 156 156 158 161 166 174 181 187
228 278 257 183 183 148 149 147 146 151 153 165 135 101 102 118 112 69 68 300 255 140 141 144 141 145 148 151 156 156 155 158 162 166 167 166 166 167 167 169 172 175 176 179 181 180 182 185 187 184 180 182 182 179 175 171 167 166 164 162 163 163 162 159 157 158 155 153 150 144 141 140 139 138 137 136 134 135 137 140 143 144 146 148 150 152 155 158 161 166 171 181 192 206 219 224 224
227 246 258 145 136 132 134 140 141 131 92 53 85 94 111 120 110 86 344 317 145 136 139 143 142 146 151 156 158 156 158 160 162 164 167 168 168 167 167 169 171 174 177 180 180 179 183 187 190 188 184 182 183 183 179 176 173 169 168 167 165 166 166 161 159 160 158 156 151 147 145 142 140 138 136 133 132 131 132 138 142 144 146 148 152 155 160 165 172 183 194 212 230 245 247 240 237
214 216 267 130 121 99 107 118 113 103 78 64 82 93 99 82 79 55 326 309 143 140 143 146 148 150 155 160 160 160 161 163 163 165 167 168 167 167 167 170 172 175 179 181 180 180 183 188 192 192 188 184 183 183 180 179 178 175 173 170 168 170 170 165 163 162 160 157 150 149 150 147 144 142 140 138 137 136 138 143 148 153 155 157 161 165 171 178 191 218 253 274 279 276 261 244 238
184 166 35 89 103 74 88 97 93 88 85 100 102 108 103 356 356 150 267 282 143 144 148 151 152 152 159 161 162 163 165 167 167 166 167 166 168 169 168 171 174 177 179 180 181 181 184 189 192 194 191 186 185 184 181 181 181 179 176 173 173 174 173 171 168 166 164 159 151 150 153 153 151 150 151 150 150 148 145 147 154 165 168 171 175 178 185 211 279 307 308 302 297 281 259 236 229
148 120 63 69 83 68 82 96 109 94 92 126 122 125 273 340 169 154 189 267 140 149 153 155 156 155 162 162 162 166 168 170 168 168 170 170 171 171 172 174 174 177 179 182 184 183 184 189 192 195 192 187 187 186 182 182 182 181 179 178 178 178 177 175 172 171 170 165 159 157 161 164 164 166 169 171 166 157 154 154 159 167 173 176 177 178 199 306 309 306 302 296 292 288 266 232 222
137 117 91 98 83 75 76 88 118 109 126 149 124 116 277 340 135 120 151 284 156 155 156 158 159 158 163 163 163 168 172 172 170 174 177 176 176 174 176 178 177 178 181 185 186 185 187 191 193 194 191 187 188 187 183 181 182 182 182 182 180 180 180 177 175 176 175 172 168 168 175 180 184 185 186 190 184 172 173 171 171 173 175 179 177 177 232 298 292 294 286 277 284 296 279 246 238
126 103 110 128 77 54 7 71 109 109 139 167 128 127 209 194 202 165 236 261 162 159 161 162 161 160 165 166 167 173 175 174 176 180 180 180 180 179 178 179 181 181 182 184 186 188 189 190 193 194 190 187 187 189 186 181 182 184 185 184 183 182 180 177 177 179 179 178 176 177 184 189 192 193 195 202 204 200 194 191 192 188 183 184 184 190 221 240 261 298 256 256 287 297 276 253 251
119 99 100 119 122 194 113 103 129 119 162 204 141 125 181 185 197 188 203 225 161 162 163 162 162 163 168 170 173 178 179 181 184 183 183 183 182 183 181 179 183 183 182 183 186 188 187 188 192 193 192 188 187 191 187 181 182 184 186 186 186 186 183 178 178 182 184 184 184 186 190 194 195 196 200 207 211 207 200 197 193 189 190 188 190 200 219 229 262 319 296 291 303 292 271 257 254
125 124 100 33 131 160 96 148 168 151 178 229 213 114 180 200 190 183 182 163 155 164 166 162 164 168 170 173 177 181 182 186 189 186 185 184 183 184 183 181 183 184 183 183 184 185 185 189 193 192 193 191 190 192 187 182 183 184 185 186 189 190 186 182 180 184 187 190 194 197 199 202 202 201 202 205 206 202 195 192 191 192 194 192 197 207 218 247 285 304 294 297 303 286 272 269 255
285 118 137 157 149 152 102 170 193 171 154 211 268 140 168 207 180 172 170 159 155 169 171 165 166 171 171 175 180 181 181 186 191 189 185 184 184 184 184 183 184 183 183 182 181 181 184 190 194 193 193 193 192 192 189 186 185 186 185 185 189 191 187 184 184 186 190 195 200 202 205 207 206 203 202 202 198 198 193 190 194 198 200 201 206 213 229 259 281 289 287 292 299 288 278 273 260
264 44 108 169 143 156 190 154 187 185 159 190 233 166 166 157 158 165 171 170 170 179 180 171 169 172 175 177 181 184 181 183 192 190 185 184 184 185 185 185 184 184 183 182 181 181 184 190 196 196 193 194 192 189 189 188 187 187 188 188 190 191 188 184 185 187 188 192 197 200 203 203 202 201 202 201 199 200 198 194 197 199 203 213 223 237 249 257 270 285 290 290 301 302 293 285 285
165 149 123 152 141 182 216 180 173 180 179 187 174 172 173 139 151 163 166 177 185 187 183 178 173 173 178 179 181 186 181 182 193 190 185 183 183 183 185 184 183 184 181 180 182 182 185 190 195 197 195 196 194 190 187 188 189 189 191 192 192 192 190 186 186 187 186 187 192 196 200 200 198 198 197 199 202 205 204 201 199 203 213 228 245 253 254 255 262 283 293 290 304 317 317 304 295
141 175 158 166 174 205 215 159 163 169 173 184 167 164 167 156 164 163 162 184 189 187 190 197 180 176 181 181 184 187 179 181 190 190 185 182 182 182 182 183 183 183 181 179 180 183 186 190 194 198 197 195 195 193 188 187 189 190 191 192 192 192 192 190 191 190 188 188 192 197 201 201 200 202 200 199 203 204 206 208 208 219 231 233 246 253 257 258 258 270 281 286 301 318 330 316 300
117 136 168 181 186 212 188 126 157 167 165 184 164 148 163 169 172 165 162 187 188 184 197 206 183 181 184 184 187 186 180 178 181 185 184 181 182 181 180 181 181 180 179 178 179 182 187 190 193 196 196 194 194 193 189 186 186 186 188 189 189 190 190 191 192 191 191 193 195 199 202 205 208 213 211 209 209 208 212 216 220 233 233 229 240 249 255 257 256 259 262 281 307 323 335 329 312
108 119 170 195 200 223 169 125 156 164 147 149 142 144 169 176 171 164 162 185 192 186 192 198 185 185 186 187 188 183 175 172 173 177 180 180 180 180 177 177 177 176 176 178 180 182 186 190 192 193 193 192 191 190 187 183 183 182 183 185 185 186 187 190 192 193 194 199 203 204 205 209 213 215 215 216 217 216 220 221 226 235 229 226 235 241 247 248 249 247 250 272 307 325 331 341 331
95 127 176 204 209 161 64 114 156 159 133 136 142 147 170 174 167 169 175 189 199 196 198 194 183 185 186 191 187 178 169 165 167 171 175 177 177 176 175 175 178 177 176 178 181 182 184 188 189 189 189 189 187 186 184 180 181 182 182 183 182 183 187 189 191 193 196 205 210 212 213 213 215 215 215 219 220 220 225 227 232 235 227 227 233 235 238 239 241 238 249 275 304 323 328 352 352
117 148 192 224 201 153 75 145 159 154 136 136 134 130 154 167 165 177 180 174 191 244 241 217 196 192 190 192 186 176 172 166 167 169 172 174 174 173 174 176 178 177 175 177 180 181 182 185 186 185 186 187 185 184 183 179 179 182 185 187 187 188 190 193 199 201 203 208 212 216 218 216 214 215 217 223 224 225 229 231 235 234 227 229 234 234 233 233 233 224 239 282 312 328 334 351 353
227 191 217 224 183 158 130 153 151 119 92 127 122 103 185 194 188 192 177 152 188 221 234 233 233 209 189 189 188 181 175 167 167 170 173 172 172 174 175 176 176 175 175 177 180 182 183 185 186 184 185 187 187 185 184 183 184 185 191 195 195 196 196 199 205 207 206 209 212 215 216 213 211 211 217 222 223 227 230 232 233 230 228 229 232 233 229 229 226 218 229 268 309 334 336 339 330
307 232 224 211 160 133 129 143 145 107 138 156 135 126 241 222 205 204 180 174 203 208 213 221 224 212 195 189 187 186 179 170 168 170 174 174 173 175 175 176 175 176 179 181 182 183 183 185 187 186 187 189 191 189 187 188 188 187 189 190 190 190 191 196 203 204 205 208 211 213 211 209 207 207 212 216 220 227 231 233 233 230 230 230 232 234 230 227 223 223 240 244 289 331 323 329 327
297 247 224 200 146 132 141 151 151 134 176 182 159 135 202 226 216 204 180 189 207 209 218 222 216 208 205 197 184 180 182 174 169 171 173 175 173 173 175 176 176 178 182 183 183 183 184 186 187 187 189 189 189 189 189 189 189 188 188 187 187 187 187 192 200 203 203 205 208 210 208 207 206 206 209 214 220 228 230 232 233 232 234 236 238 238 233 227 223 233 247 246 268 304 305 319 327
238 248 205 174 147 146 159 162 156 139 119 165 198 147 102 228 221 186 178 198 208 212 221 222 217 211 209 207 192 177 182 176 171 173 174 176 175 175 177 179 180 181 182 182 182 184 186 187 187 188 190 190 189 189 190 192 193 194 193 190 191 192 192 193 197 201 202 202 205 207 206 206 207 208 212 217 221 226 229 231 234 234 234 237 239 237 232 230 232 240 244 250 264 280 299 316 323
242 236 183 174 165 162 168 164 150 131 104 160 220 185 114 261 231 168 177 199 210 212 216 217 215 211 208 210 198 180 183 179 172 174 175 177 177 178 180 180 181 181 181 182 184 186 188 189 189 190 193 195 194 193 194 196 198 200 199 197 194 196 199 199 197 200 202 203 205 206 206 208 210 210 213 217 220 224 229 232 235 238 239 238 237 236 234 239 246 247 247 256 269 279 289 300 306
239 212 207 184 162 163 162 162 138 116 121 199 212 192 168 285 215 162 172 204 215 210 210 213 213 210 207 209 203 183 178 183 178 175 177 179 179 180 180 180 180 181 182 183 184 185 187 188 189 191 195 198 200 200 200 200 200 201 203 203 199 197 199 200 200 202 204 206 210 211 209 209 211 213 214 215 217 222 228 234 238 241 244 240 236 238 240 245 254 257 259 265 272 274 273 277 283
207 180 197 60 77 134 135 151 90 106 212 227 198 191 183 295 222 178 188 209 207 198 198 203 206 208 205 207 208 189 176 183 180 174 177 179 179 180 179 179 180 181 183 182 183 185 186 187 189 191 196 199 201 202 203 201 201 204 206 207 206 203 201 201 201 203 205 207 212 216 214 212 213 216 218 218 216 221 230 238 242 244 245 239 234 239 244 252 265 268 267 271 277 274 265 262 261
184 143 149 85 31 50 70 4 28 111 245 234 182 183 180 238 239 203 214 220 194 187 195 196 198 201 199 203 208 196 179 178 175 170 174 174 176 178 178 179 180 179 180 182 184 186 186 187 189 190 195 199 201 203 203 202 203 208 211 211 213 213 209 206 205 207 208 210 214 217 217 215 215 216 218 218 216 222 233 239 242 244 243 237 235 240 247 260 274 271 266 272 282 275 261 254 249
165 139 134 123 101 89 119 313 25 191 256 242 161 161 176 243 245 217 224 225 188 188 198 195 196 194 193 198 202 199 184 175 173 170 171 171 174 178 178 178 178 178 181 183 185 186 187 188 189 190 194 198 200 202 202 203 206 211 214 215 219 222 217 213 212 213 214 215 216 216 216 217 217 214 213 215 215 221 231 237 240 241 239 238 241 247 254 268 277 271 264 268 277 273 263 259 253
163 157 156 154 150 154 173 183 88 213 254 257 153 153 193 267 272 270 242 223 195 190 194 191 191 190 190 193 195 197 188 176 172 171 175 176 176 179 180 179 179 181 183 184 185 187 187 188 190 192 195 197 200 202 202 205 210 214 215 217 221 223 219 216 215 216 216 217 218 218 219 220 219 216 213 213 213 220 231 237 241 242 238 236 242 252 259 268 272 266 260 263 270 274 266 259 259
174 166 148 155 162 159 173 176 174 208 246 268 135 155 202 230 251 291 277 233 195 179 183 179 179 182 181 184 190 193 190 178 158 148 170 180 179 180 181 181 182 184 184 184 185 187 188 189 191 193 194 196 199 201 202 207 212 215 215 216 217 217 216 216 215 216 218 220 221 221 223 225 224 221 219 219 218 223 232 237 240 241 236 233 237 248 259 266 265 259 257 260 264 271 266 256 259
202 151 117 164 186 157 143 172 183 180 155 109 146 181 234 208 266 307 302 213 171 154 155 157 162 167 167 174 185 191 190 157 107 97 118 186 184 183 183 184 185 186 185 184 185 186 188 191 192 194 196 197 199 202 204 207 213 215 214 214 215 214 214 216 216 218 221 226 226 225 225 227 225 222 223 225 227 230 234 238 240 238 232 230 232 244 257 263 261 260 262 263 261 264 266 260 261
191 132 150 212 185 130 123 174 170 111 125 188 178 305 308 312 335 343 21 66 72 87 124 144 150 155 161 172 183 188 167 120 115 144 168 147 126 161 181 188 188 187 186 185 186 189 190 192 193 194 197 198 200 203 205 207 211 215 215 216 217 215 213 217 219 220 223 228 229 227 228 227 224 223 226 229 232 235 236 238 239 235 229 227 231 242 255 258 257 260 263 261 258 261 265 263 265
131 167 196 211 119 91 104 139 20 60 127 247 12 324 306 6 53 349 19 38 26 27 82 116 123 141 158 170 174 160 123 126 155 171 166 122 86 114 166 181 184 184 186 188 189 192 193 194 195 194 195 198 201 204 206 208 210 213 215 217 217 216 214 218 222 224 225 226 228 227 226 225 223 224 227 230 233 236 238 239 237 232 228 229 234 240 248 252 251 254 257 257 256 258 261 261 265
123 165 179 131 139 179 79 146 174 103 129 275 346 331 285 157 173 345 13 21 7 22 67 88 94 115 136 142 136 127 127 148 170 171 161 132 119 141 158 164 171 174 182 188 190 193 195 196 198 197 198 200 202 203 205 208 210 212 215 217 218 216 215 218 223 226 225 225 226 225 223 222 222 224 227 229 232 237 240 240 236 232 230 232 237 239 242 245 247 248 250 252 254 256 260 261 262
56 77 45 77 143 163 155 156 161 133 141 193 346 340 277 204 281 346 37 35 39 63 73 75 80 88 100 111 112 121 139 160 168 163 148 139 157 171 165 165 171 172 178 185 186 190 194 197 199 199 200 201 202 202 203 206 209 211 214 217 218 218 218 220 223 225 226 225 225 224 222 221 222 224 227 230 235 239 241 241 238 236 235 236 238 238 238 239 243 247 247 248 250 255 261 261 258
74 54 18 298 90 129 156 103 74 123 140 162 141 255 265 283 347 81 77 66 76 88 82 73 69 67 75 90 98 109 129 139 142 129 111 134 169 180 176 173 175 178 181 180 183 189 194 196 198 199 200 200 201 203 204 206 209 210 213 216 218 219 220 223 225 226 227 227 228 227 227 230 231 230 231 235 239 241 241 243 244 240 237 236 236 236 236 237 241 245 247 247 248 252 258 258 256
134 122 158 182 159 125 132 251 315 98 126 159 151 181 261 316 43 94 90 90 91 86 86 81 66 60 63 74 84 89 97 107 110 100 93 107 165 181 180 173 173 180 181 179 184 188 190 194 198 200 200 199 201 203 204 207 209 209 212 216 219 219 219 221 224 226 228 229 231 233 234 239 241 238 235 237 243 246 246 247 248 244 238 235 233 234 235 236 239 244 247 248 248 252 257 256 254
Height
779 781 781 782 782 783 785 786 801 803 804 818 815 813 809 799 799 802 805 803 803 801 795 795 795 797 802 805 807 806 807 811 816 823 824 814 809 812 814 816 818 820 822 824 826 827 828 829 829 829 830 830 830 830 830 830 830 830 830 831 830 831 830 830 830 830 830 830 830 830 831 830 830 831 832 832 833 833 833 833 834 834 835 836 837 837 838 838 838 839 839 840 840 841 842 842 843
780 781 781 783 782 786 789 787 806 812 811 821 814 811 807 799 800 803 805 802 801 798 793 794 795 798 799 798 800 804 808 808 807 810 811 810 811 813 814 816 818 820 822 824 826 828 829 829 829 830 830 830 830 831 831 831 831 831 832 832 831 831 831 831 831 831 830 831 831 831 831 831 832 832 833 833 834 834 833 834 835 836 837 838 838 838 839 839 839 840 841 841 842 842 843 844 845
780 782 782 784 784 786 791 792 808 815 818 823 815 808 803 804 803 801 800 798 796 793 794 795 796 800 800 802 802 807 812 808 805 806 809 810 810 813 815 816 818 821 822 825 827 828 828 829 829 830 830 830 831 831 831 832 832 833 833 833 833 832 832 832 832 832 831 831 832 832 832 832 833 834 834 834 834 834 834 835 836 837 838 838 839 839 840 840 841 841 842 843 843 844 845 846 846
781 782 782 783 786 790 796 802 808 813 820 821 816 808 803 805 801 799 797 794 792 792 795 796 800 801 801 807 805 807 812 809 806 806 809 810 809 811 814 816 819 821 823 825 827 828 829 829 830 830 830 831 831 832 832 833 833 834 834 834 833 833 833 833 833 833 832 832 832 833 833 834 834 834 835 835 835 835 835 836 837 838 837 838 840 841 841 841 842 843 844 844 844 846 847 847 848
781 783 783 783 790 794 798 805 806 811 817 814 816 809 802 802 799 798 796 794 792 792 795 795 803 802 800 804 803 808 811 808 807 806 808 810 809 811 814 817 819 821 823 825 827 828 829 830 830 831 831 832 832 833 833 834 834 834 835 834 834 834 834 834 834 834 834 834 834 834 834 835 835 835 836 836 836 836 837 838 839 839 838 840 840 841 842 843 844 845 845 845 846 847 848 849 850
782 783 783 783 788 791 800 809 809 811 808 804 811 807 800 798 797 798 796 795 791 791 793 795 801 802 805 804 801 807 807 806 807 806 807 809 811 812 815 817 819 822 824 826 827 829 829 830 831 832 832 832 833 834 834 835 835 835 835 835 835 835 835 836 836 836 835 835 835 835 835 836 836 836 837 837 837 837 838 839 840 840 840 841 842 842 844 845 846 846 846 847 848 849 850 851 851
782 785 786 789 791 792 805 813 810 811 803 798 804 802 799 797 795 796 797 797 794 792 792 795 795 801 811 805 805 806 803 805 805 806 807 809 812 813 816 818 820 822 824 826 828 829 830 831 832 833 833 833 834 835 836 836 836 836 836 836 836 836 836 837 837 837 836 836 836 836 836 836 836 837 838 838 838 838 839 840 841 842 842 843 844 844 845 846 847 847 848 848 849 850 851 852 852
782 786 788 795 801 801 808 811 808 808 802 797 798 799 798 796 794 796 798 798 798 796 795 796 793 804 813 805 811 809 803 806 805 808 808 810 813 814 817 819 821 823 825 827 829 830 831 832 832 833 833 835 835 837 837 836 837 837 837 836 836 836 837 837 837 837 837 838 838 838 838 838 838 838 839 839 839 840 841 841 842 843 843 845 845 846 847 848 848 849 849 850 851 852 853 853 854
782 787 790 797 805 806 809 809 807 804 802 799 797 797 795 794 794 795 798 798 798 798 797 796 793 806 814 809 814 809 805 808 807 810 810 813 814 816 818 820 822 823 826 828 829 831 831 833 833 834 834 835 837 838 838 837 838 838 837 837 837 837 837 838 838 838 838 839 839 839 839 840 839 839 840 841 841 841 842 843 843 844 845 846 847 847 848 849 850 850 851 851 852 853 854 854 855
784 788 792 799 805 810 811 810 808 804 801 800 798 796 794 793 794 795 798 799 797 798 798 794 795 806 813 814 815 810 808 809 808 812 813 815 816 817 820 821 823 824 826 828 830 831 832 833 834 835 835 836 838 840 839 838 839 839 838 838 837 837 838 839 839 840 840 840 840 841 841 841 841 841 842 842 843 843 843 844 845 846 847 848 848 849 850 850 851 852 852 853 854 854 855 856 856
790 790 791 802 808 813 813 811 809 804 801 801 800 797 795 793 795 797 798 800 797 799 798 795 802 807 811 815 815 811 810 811 811 813 815 817 818 819 820 822 824 825 827 829 831 832 833 834 834 835 835 837 839 841 840 839 841 840 839 839 838 838 839 840 841 841 841 842 842 842 843 843 843 843 843 844 844 845 845 846 847 848 848 849 850 851 851 852 852 853 854 855 855 856 857 858 858
795 795 794 807 811 810 809 810 809 805 804 804 804 799 794 793 796 798 798 801 798 801 800 797 802 803 811 818 815 812 812 813 813 814 817 818 819 821 822 823 825 826 828 830 832 833 834 835 835 836 836 837 839 842 841 840 842 841 841 840 839 839 840 841 842 842 842 843 843 844 844 844 845 845 845 845 846 847 847 847 848 849 850 851 851 852 853 853 854 855 856 856 857 858 858 859 859
795 795 798 807 805 807 807 808 808 807 809 805 802 797 793 795 797 797 797 800 799 803 800 794 796 798 812 818 814 814 813 815 815 817 818 819 821 822 823 824 826 828 829 831 832 833 835 835 836 836 837 837 839 842 843 841 842 843 843 842 840 840 841 842 843 844 844 844 845 845 845 845 846 846 847 847 848 848 849 850 850 851 851 852 853 853 854 855 856 857 858 858 859 859 860 860 861
790 791 796 805 802 805 806 808 809 810 811 803 799 795 793 796 796 795 796 801 802 800 796 791 792 800 812 817 818 817 813 815 816 818 819 820 823 823 825 826 827 829 830 832 833 834 835 836 837 837 837 838 839 841 843 844 843 844 845 843 842 842 842 844 844 845 846 846 846 846 847 847 847 848 848 849 849 850 851 852 852 853 853 853 854 855 856 857 858 859 859 860 860 861 861 862 862
786 788 794 803 803 806 805 807 807 808 809 801 798 795 795 796 794 795 795 800 802 792 790 793 792 800 810 811 816 814 811 815 815 818 820 822 824 825 827 827 829 830 831 833 834 835 836 837 837 838 838 839 840 841 843 845 845 845 846 846 844 843 844 845 846 846 847 847 848 848 848 848 849 849 850 850 851 852 852 853 854 855 855 856 857 857 858 859 860 861 861 862 862 863 863 863 864
782 786 796 804 806 808 806 805 806 807 806 800 796 793 797 797 792 796 793 792 798 791 791 797 793 797 805 805 807 806 809 814 815 818 820 823 825 826 828 828 830 831 833 834 835 836 836 838 838 839 839 840 841 842 844 845 847 847 847 848 845 844 845 846 847 847 848 849 849 849 850 850 850 851 851 852 852 853 854 855 856 856 857 858 859 860 860 861 862 862 863 863 864 864 864 865 865
781 789 800 805 805 807 805 804 805 804 802 798 796 793 798 800 794 794 790 788 796 797 795 797 793 794 800 803 804 806 810 813 815 819 820 823 825 827 829 830 831 832 833 834 835 836 837 838 839 839 840 841 842 843 844 845 847 848 849 849 846 844 845 848 848 848 849 850 851 851 851 851 852 852 853 853 854 855 856 856 857 858 859 860 860 861 862 862 863 864 864 865 865 865 866 866 867
786 796 802 803 802 802 801 800 796 795 797 798 796 794 797 801 798 793 793 796 798 800 800 798 797 797 800 803 806 808 811 813 816 818 820 823 825 827 829 830 831 832 833 835 836 837 838 839 839 840 841 842 843 844 845 846 847 848 850 850 848 845 846 849 850 850 851 852 853 853 853 853 853 854 854 855 856 857 857 858 859 859 860 861 862 862 863 864 864 865 866 866 866 867 867 867 868
789 796 800 799 796 793 792 791 789 790 794 796 795 795 796 798 798 794 799 805 802 805 806 803 803 804 804 805 808 811 812 814 816 818 820 822 824 826 828 830 831 832 833 834 836 837 838 839 840 841 841 842 843 844 846 846 848 849 850 851 850 848 847 849 850 852 853 853 854 854 855 855 855 856 856 857 857 858 859 860 860 861 862 863 863 864 864 865 866 866 867 867 868 868 868 869 869
787 792 799 794 787 788 786 786 786 786 789 793 797 796 796 797 795 795 801 807 807 809 808 806 808 808 807 807 808 811 813 815 817 819 821 822 824 825 827 829 830 832 833 834 836 837 838 839 840 841 842 843 844 845 846 848 849 850 851 852 852 851 850 850 851 853 854 855 856 856 856 856 857 857 858 859 859 860 860 861 862 863 863 864 864 865 865 866 867 868 868 869 869 869 869 870 870
785 788 794 787 782 787 785 784 784 784 787 792 796 797 799 797 795 797 801 809 812 809 805 804 806 806 807 807 808 812 814 816 818 820 821 823 825 826 828 829 830 832 833 835 836 837 838 839 840 841 842 843 845 846 847 848 850 851 852 853 854 854 854 853 853 854 855 857 857 858 858 858 858 859 859 860 861 861 862 862 863 864 864 865 865 866 866 867 868 868 869 870 870 870 871 871 871
786 785 785 782 780 786 784 781 783 784 787 792 796 799 799 797 798 800 802 809 810 802 800 800 800 802 804 806 808 811 814 816 818 820 822 823 825 826 829 830 831 833 834 835 836 837 838 840 841 841 843 844 845 846 847 849 850 852 853 854 855 855 856 855 855 856 856 857 858 859 859 860 860 860 861 861 862 863 863 864 864 865 866 866 867 867 868 868 869 870 870 871 871 871 872 872 872
787 785 779 779 778 782 781 779 782 783 788 793 795 795 795 800 804 803 803 807 802 795 796 798 799 800 803 806 809 812 814 816 818 820 821 823 824 826 828 830 831 833 834 835 836 837 839 839 841 842 843 844 846 847 848 850 851 852 854 855 855 856 857 857 857 857 858 858 859 860 860 861 861 862 863 863 864 864 865 866 866 867 867 868 869 869 870 870 871 871 872 872 872 873 873 873 873
785 786 780 778 776 778 779 778 781 784 790 793 791 794 798 803 806 804 804 803 798 794 796 798 800 802 805 808 809 812 814 816 819 820 822 823 824 826 828 830 831 833 834 835 836 837 839 839 841 842 843 844 846 847 849 850 852 853 854 855 856 857 857 858 858 859 859 859 860 861 861 862 863 863 864 865 865 866 867 867 868 868 869 870 870 871 872 872 873 873 873 873 873 874 874 874 874
786 786 779 777 777 777 777 778 781 787 795 796 796 801 802 801 803 806 805 801 797 795 798 800 802 804 807 809 811 813 815 817 819 821 823 824 826 828 829 830 831 833 834 835 836 837 839 840 841 842 843 845 846 848 849 851 852 853 854 855 856 857 858 859 860 860 860 861 861 861 862 863 864 864 865 866 867 867 868 869 869 870 871 871 872 872 873 873 874 874 874 874 874 874 874 874 874
782 780 777 777 780 778 778 781 784 790 797 800 804 807 805 801 801 807 805 800 797 797 801 803 804 807 809 811 812 813 815 817 819 821 823 825 827 828 829 831 832 833 834 835 836 838 839 840 841 842 843 845 847 848 850 851 852 854 855 856 857 858 859 860 861 861 862 862 862 863 864 864 865 866 866 867 868 869 869 870 871 872 872 873 873 874 874 874 875 875 875 875 875 874 874 874 874
773 777 778 779 782 780 781 785 787 791 797 801 807 812 808 804 806 812 807 800 798 800 804 805 806 809 810 811 812 813 815 817 819 821 823 825 826 828 829 831 832 833 834 835 836 838 839 840 841 842 844 845 847 849 850 851 853 854 855 856 858 858 860 860 861 862 863 863 864 864 865 866 867 867 868 869 869 870 871 871 872 873 873 874 874 874 875 875 875 875 875 875 875 875 874 874 874
770 775 783 786 785 785 785 788 790 791 800 800 802 811 810 806 810 812 806 801 801 803 806 807 808 810 811 812 813 814 816 817 819 821 822 824 825 827 829 830 832 833 834 835 836 838 839 840 842 843 844 846 847 849 850 852 853 854 856 857 858 859 860 861 862 863 864 865 865 866 867 867 868 869 869 870 870 871 872 872 873 874 874 874 875 875 875 876 876 876 876 876 876 875 875 875 875
771 773 787 794 789 792 790 790 791 791 800 797 796 814 818 812 812 809 804 802 802 805 808 808 809 811 812 813 813 814 815 817 819 820 821 823 824 826 828 829 831 833 834 835 837 838 840 840 842 843 844 846 847 849 850 852 854 855 856 857 858 860 860 861 862 864 865 866 866 867 868 868 869 870 871 871 872 872 872 873 874 874 875 875 876 876 876 876 876 876 876 876 876 876 876 875 875
775 776 788 798 799 800 794 792 794 793 799 793 794 821 827 816 811 806 803 803 803 807 809 808 810 811 812 813 814 815 815 816 817 819 821 822 824 825 827 829 831 832 834 836 837 838 840 841 842 843 844 846 848 849 851 852 854 855 857 858 859 860 861 862 863 864 865 866 867 868 868 869 870 871 871 872 872 873 873 874 874 875 875 876 876 876 876 877 877 877 877 877 876 876 876 876 876
781 786 791 799 806 805 795 795 797 799 801 792 796 822 827 816 810 805 804 803 803 808 808 808 810 811 812 813 814 815 814 815 816 817 820 821 823 825 826 829 830 832 834 835 837 838 840 841 842 843 844 846 848 849 851 853 854 856 857 858 859 861 862 863 864 865 866 867 868 868 869 870 870 871 872 873 873 874 874 874 875 875 876 876 876 877 877 877 877 877 877 877 877 877 876 876 876
784 795 804 805 806 807 799 795 797 800 801 794 800 821 825 815 809 805 803 803 803 807 808 807 809 810 812 813 813 815 814 814 816 817 819 821 823 824 826 828 829 831 833 835 837 838 840 841 842 843 844 846 848 850 851 853 855 856 858 859 860 861 862 863 864 866 867 867 868 869 869 870 871 872 872 873 874 874 874 875 875 875 876 876 877 877 877 877 877 877 877 877 877 877 877 876 876
789 795 809 808 806 811 806 798 794 795 799 799 803 816 821 813 808 806 804 804 805 807 808 807 809 810 810 812 813 814 814 815 816 817 818 820 822 824 825 826 828 830 832 834 836 838 840 841 842 843 845 846 848 850 851 853 855 856 858 859 860 862 863 864 865 866 867 868 868 869 870 870 871 872 873 873 874 874 875 875 876 876 876 877 877 877 877 878 878 878 878 878 877 877 877 877 876
799 797 805 805 804 811 810 804 797 792 799 804 803 808 813 809 807 808 806 805 807 808 809 808 808 809 809 810 812 813 814 815 815 815 817 820 822 823 824 825 827 830 832 834 836 838 839 841 842 843 845 846 848 850 851 853 855 857 858 860 861 862 863 865 866 867 868 868 869 870 870 871 872 872 873 874 874 875 875 876 876 877 877 877 877 878 878 878 878 878 878 878 878 878 877 877 877
801 801 803 804 804 808 808 804 797 794 799 804 807 809 809 808 808 809 808 806 808 809 808 808 808 808 809 809 811 812 813 814 813 813 816 818 821 823 824 826 828 829 831 833 835 837 839 841 842 844 845 846 848 850 852 853 855 857 858 860 861 862 863 865 866 867 868 869 869 870 871 871 872 873 873 874 874 875 875 876 876 877 877 878 878 878 879 879 879 879 879 879 879 878 878 878 877
793 793 797 802 803 805 801 796 792 791 800 805 807 810 810 811 811 810 809 806 807 809 808 809 808 807 808 808 810 810 812 812 811 812 814 817 820 822 823 825 827 829 831 833 835 837 839 841 842 844 845 846 848 850 851 853 854 856 857 859 860 861 863 865 866 867 868 869 869 870 871 872 872 873 874 874 875 875 875 876 876 877 877 878 878 879 879 879 879 879 879 879 879 879 879 878 878
787 789 793 797 800 800 793 793 790 787 801 808 803 807 810 810 811 809 809 808 809 810 809 810 808 807 808 808 808 809 810 810 809 811 813 816 819 820 823 825 827 829 830 832 835 837 838 840 842 843 844 846 847 849 850 852 853 855 856 858 859 861 863 864 865 866 867 868 869 870 871 872 873 873 874 875 875 875 876 876 877 877 877 878 878 879 879 880 880 880 880 880 879 879 879 879 879
786 790 793 795 798 798 790 791 791 786 800 809 803 808 812 809 810 810 810 812 811 809 809 809 808 807 807 807 807 807 808 807 808 811 813 815 818 820 822 824 826 828 830 832 834 836 838 840 841 843 844 846 847 848 849 851 852 854 855 857 859 861 862 863 864 866 867 868 869 870 871 872 873 874 874 875 875 876 876 876 877 877 878 878 879 879 880 880 880 880 880 880 880 880 880 880 880
786 789 790 794 795 796 794 792 790 788 800 810 807 811 814 809 809 811 811 812 811 808 807 807 807 807 807 807 806 806 808 808 808 810 812 814 816 819 822 823 825 827 828 831 833 835 837 839 841 842 844 846 847 848 849 850 852 854 856 857 859 860 862 863 864 865 867 868 868 869 870 871 873 874 874 875 875 876 876 877 877 878 878 878 879 879 880 880 880 881 880 880 880 880 880 880 880
786 788 790 793 790 795 804 802 794 790 797 805 808 813 816 812 811 812 812 811 811 810 808 805 805 805 805 804 804 805 807 808 809 810 811 813 816 818 820 822 825 826 828 830 833 835 836 838 840 842 844 846 847 848 850 851 853 855 856 858 859 861 862 863 865 866 867 867 868 869 870 871 872 873 874 875 875 876 876 877 877 878 878 878 879 879 880 880 880 880 880 880 880 881 881 881 881
787 785 786 789 787 789 798 800 795 794 799 800 806 823 825 816 817 816 811 811 811 810 809 808 806 804 804 804 803 803 804 806 808 810 810 812 815 817 819 821 824 826 827 829 831 834 835 837 839 841 843 845 846 848 849 851 853 855 856 858 859 861 862 863 864 865 866 867 868 868 869 870 872 873 874 874 875 876 876 877 877 878 878 879 879 879 879 880 880 880 880 880 881 881 881 881 881
789 782 777 779 784 787 791 794 797 810 818 804 805 833 836 819 817 817 813 813 812 810 810 809 807 805 805 805 805 803 802 803 805 807 809 810 813 816 818 821 822 825 826 827 830 832 834 836 838 840 842 844 846 847 849 850 852 853 855 856 857 859 860 861 862 863 865 866 867 868 869 870 871 872 873 874 875 876 876 877 877 878 878 879 879 879 879 879 880 880 880 880 881 881 881 881 881
794 778 767 772 780 787 792 793 801 818 823 804 798 823 836 826 818 814 813 816 813 811 810 808 807 806 805 804 804 803 802 803 803 805 807 809 812 815 817 819 821 823 825 827 829 831 833 835 837 839 841 843 845 847 848 850 851 853 854 854 855 857 858 859 861 862 863 865 866 867 868 869 871 872 873 874 875 875 876 876 877 878 878 879 879 879 879 879 880 880 880 880 880 881 881 881 882
791 769 762 772 779 787 790 790 799 806 808 807 801 809 829 831 819 809 811 817 816 813 811 807 806 805 805 803 802 802 801 801 803 804 806 808 810 813 815 817 819 821 824 827 828 830 832 834 836 838 841 843 845 846 848 849 850 852 853 854 855 856 857 858 860 861 863 864 865 867 867 869 870 871 872 873 874 875 875 876 877 877 878 879 879 879 879 879 879 880 880 880 880 881 881 882 882
778 762 761 768 773 781 784 788 796 794 804 822 815 807 824 830 816 807 810 817 818 813 808 805 804 803 803 802 801 801 800 800 801 803 805 806 808 811 813 814 817 820 823 825 827 829 831 833 835 837 840 842 844 846 847 848 850 851 852 853 854 855 857 858 859 861 862 864 865 866 867 868 869 870 872 872 873 874 875 876 876 877 878 879 879 879 879 879 879 880 880 880 880 881 881 882 882
766 760 762 764 770 777 782 790 794 795 809 824 816 809 821 826 818 813 815 817 813 806 803 801 800 800 800 800 800 800 800 800 800 801 803 805 807 809 812 814 816 819 821 824 826 828 830 833 835 836 839 841 843 845 846 848 849 850 852 853 854 855 856 858 859 860 862 863 864 865 866 867 868 869 871 872 873 874 874 875 876 877 878 878 879 879 879 879 879 880 880 880 881 881 881 882 882
759 762 767 772 777 779 785 789 790 807 819 813 805 804 814 823 818 812 807 797 792 794 799 799 797 798 798 798 798 798 800 800 800 801 802 804 807 809 811 814 816 818 821 823 825 827 829 831 833 835 838 840 842 844 846 847 848 849 851 852 854 855 856 857 858 859 861 862 863 864 865 866 867 868 870 871 872 873 874 875 876 876 877 878 879 879 879 879 880 880 880 880 881 881 881 882 882
761 767 771 783 791 789 801 805 802 825 827 803 795 798 810 823 813 800 791 777 777 786 791 793 793 794 795 795 796 796 798 800 800 801 802 804 807 809 811 813 815 818 820 822 824 826 828 830 832 834 837 839 841 843 845 846 848 849 850 852 853 855 855 856 857 858 860 861 862 863 864 865 866 868 869 870 871 872 873 874 875 876 877 877 878 879 879 879 879 880 880 880 881 881 881 882 881
766 771 775 792 807 810 826 831 827 836 823 794 791 798 811 815 795 785 784 776 778 780 781 785 788 791 793 794 794 795 796 799 800 801 802 803 806 808 810 812 815 817 818 820 822 824 826 828 830 833 835 838 840 842 845 846 847 848 850 851 853 854 855 856 857 858 858 860 861 862 863 864 866 866 867 868 870 871 872 873 874 875 876 877 877 878 878 879 879 880 880 881 881 881 881 881 881
768 772 778 793 810 823 837 840 838 838 817 790 788 799 810 803 784 781 781 776 775 774 776 780 783 787 790 791 792 793 795 797 799 800 800 801 803 805 808 810 812 814 816 818 820 822 824 826 829 831 834 836 839 842 844 845 847 848 849 851 852 853 854 855 856 857 858 859 860 861 863 864 865 865 866 867 869 870 871 872 873 874 875 876 877 877 878 878 879 879 880 880 881 881 881 881 881
764 763 770 781 791 805 821 828 832 829 812 797 794 804 811 799 785 781 777 772 770 769 772 775 778 783 786 789 792 793 795 796 798 800 800 800 801 803 805 808 809 811 813 815 818 820 822 824 827 829 832 835 838 840 842 844 846 847 849 850 851 852 853 854 855 856 857 858 859 860 862 863 864 865 866 867 868 869 870 871 872 873 874 875 876 877 877 878 879 879 880 880 880 881 880 880 881
765 760 767 775 771 775 791 802 806 804 806 809 806 806 804 791 782 777 772 771 769 770 773 775 779 782 784 789 792 792 795 797 799 801 799 798 798 801 803 805 807 809 811 814 816 819 821 823 825 827 830 833 836 838 841 843 845 847 848 849 851 852 853 854 855 856 857 858 859 859 861 862 863 864 865 866 868 868 869 870 871 872 873 874 875 876 877 877 878 879 879 879 880 880 880 880 880
766 766 768 767 758 760 778 792 793 794 807 815 811 808 801 791 786 779 773 775 776 777 778 779 781 782 785 789 790 792 795 798 801 798 796 798 800 802 803 804 806 808 811 813 815 817 818 820 823 826 829 832 834 837 839 841 843 845 847 848 849 851 852 853 854 855 856 857 858 859 860 861 862 864 865 866 867 868 869 870 870 871 872 873 874 875 875 876 877 878 878 879 879 879 880 879 880
761 768 761 758 759 761 770 788 799 806 817 819 813 815 812 804 801 792 786 788 788 785 782 782 785 785 787 790 789 793 796 798 799 796 796 800 802 802 801 802 805 808 811 813 814 816 818 820 822 824 827 829 832 835 837 839 841 843 845 846 847 849 850 852 853 855 856 857 858 858 859 861 862 863 864 865 866 867 868 869 870 871 871 872 873 873 874 875 876 877 877 878 878 879 879 879 879
747 754 750 756 773 776 775 788 799 811 828 828 820 819 814 812 812 806 803 802 798 793 787 786 789 788 790 791 790 794 797 798 797 796 797 800 801 800 798 800 804 807 810 811 813 816 818 820 822 822 824 826 829 832 834 837 839 841 843 844 846 848 849 851 853 854 855 856 857 858 859 860 861 862 863 864 865 866 867 868 868 869 870 871 872 872 873 874 874 875 876 877 877 878 878 878 878
743 747 750 756 766 772 775 781 786 801 825 833 826 822 816 812 814 811 809 806 801 798 793 792 793 792 791 792 792 794 795 796 796 796 798 799 799 799 798 800 802 805 808 810 812 815 817 819 821 823 825 826 829 831 833 836 838 839 841 843 845 847 849 851 852 853 854 855 857 857 858 859 860 861 862 863 864 865 866 866 867 868 869 869 870 871 871 872 873 874 874 875 876 876 876 876 877
752 756 762 762 762 765 771 777 780 791 814 828 829 826 819 811 808 808 806 803 799 796 795 796 796 795 794 793 793 794 794 795 796 798 801 801 800 799 799 801 801 804 808 810 813 815 816 819 820 822 824 826 830 832 833 835 836 838 840 842 844 846 848 850 851 852 853 854 855 856 857 859 859 860 862 862 863 864 864 865 866 866 867 868 869 869 870 871 871 872 872 873 874 874 875 875 875
752 758 763 765 765 768 778 788 788 787 799 814 816 816 818 812 804 804 804 800 797 795 795 797 798 798 799 797 795 795 795 796 797 799 803 805 803 801 801 802 803 806 809 812 815 816 818 820 821 822 824 825 828 830 832 834 835 837 839 841 843 845 847 849 850 851 852 852 854 855 856 858 858 859 860 861 862 863 864 864 864 865 866 866 867 867 868 869 869 870 871 871 872 873 873 874 874